Location: Austin
(30.3000°N, 97.7500°W)
Time: 10:59:00
(UTC-05:00)

Atlas Centaur 2 - Pass Details

Date: 03 April 2024
Orbit: 458 x 1279 km, 30.4° (Epoch: 21 April)

Event Time Altitude Azimuth Distance (km) Brightness Sun altitude
Exits shadow 06:50:39 - 276° (W) 2,594 4.1 -6.5°
Reaches altitude 10° 06:51:23 10° 276° (W) 2,331 3.9 -6.3°
Maximum altitude 06:57:00 79° 191° (S) 940 2.5 -5.1°
Drops below altitude 10° 07:04:09 10° 105° (ESE) 2,927 6.3 -3.6°
Sets 07:07:12 0° 104° (ESE) 3,995 7.2 -2.9°
